Torna al catalogo

STARLINK-30809

AttivoComunicazioniVLEO
NORAD 58183·PAYLOAD·🇺🇸 United States

Lanciato Oct 30, 2023 da Cape Canaveral Space Force Station

Loading…

Prossimi Passaggi (prossime 24 ore)

TLE

AggiornatoSource: CelesTrak SupGP

Epoca: Sep 14, 2026, 13:36 UTC

1 58183C 23167J   26257.56715278  .00011328  00000+0  41050-3 0  2571
2 58183  42.9993 157.0714 0001335 258.3899 233.6143 15.27555780    12

Traccia STARLINK-30809 in tempo reale con AllMySat

Download on the App Store